Dr. Bill's Marine Weather

Coastal Marine Forecast

       Alabama   Florida   Louisiana   Mississippi

Printer Friendly AL  FL  LA  MS

Data Buoys:   Western Gulf of Mexico    Eastern Gulf of Mexico
**********************************************************************
  Alabama
800 AM CDT SAT MAR 25 2017

ALZ051>064-251400-
SOUTHWEST ALABAMA
  
CITY           SKY/WX    TMP DP  RH WIND       PRES   REMARKS
MOBILE         LGT RAIN  67  63  87 SE13      30.16R                  
BROOKLEY FIELD PTSUNNY   69  65  86 SE10      30.18R                  
EVERGREEN      CLOUDY    60  55  83 SE5       30.21R                  
**********************************************************************
  Florida
900 AM EDT SAT MAR 25 2017

FLZ001>010-012>015-112-114-115-251400-
PANHANDLE FLORIDA
  
CITY           SKY/WX    TMP DP  RH WIND       PRES   REMARKS
PENSACOLA      CLOUDY    71  65  81 SE10      30.18R                  
PENSACOLA NAS  CLOUDY    70  65  84 SE10      30.17R                  
MILTON NAS     LGT RAIN  62  59  90 E8        30.19                   
CRESTVIEW      SUNNY     60  57  89 E3        30.22R                  
DUKE FIELD     FAIR      64  58  81 SE8       30.20R                  
VALPARAISO     PTSUNNY   65  61  85 E7        30.20R                  
MARY ESTHER    MOSUNNY   69  64  85 SE13      30.19                   
TRI COUNTY     FAIR      62  58  86 E3        30.25R                  
PANAMA CITY    FAIR      62  58  86 E7        30.21R                  
TYNDALL AFB    SUNNY     64  61  88 E7        30.23R                  
APALACHICOLA   CLOUDY    69  64  84 SE6       30.24R                  

STATION/POSITION SKY/WX   TEMP    WIND        PRES    WAVE   SWELL
                          AIR SEA DIR/SP/G            HT/PER HT/PER
                          (F)     (DEG/KT/KT) (MB)    (FT/S) (FT/S)
30.1N   87.6W              69 69  140/ 10/ 12 1020.9    4/ 7   3/ 7
29.2N   88.2W                     140/ 16/ 19 1020.8R   6/ 7
28.8N   86.0W              71 71              1021.5    6/ 6
PANAMA CITY BEAC           65 69   90/  7/ 12 1023.4R
TOWER C                    68     140/ 16/ 17 1024.2R
28.5N   84.5W              69 69  130/ 16/ 17 1021.9    4/ 5

**********************************************************************
  Louisiana
800 AM CDT SAT MAR 25 2017

LAZ040-048-061>063-065-066-069-251400-
SOUTHEAST LOUISIANA
  
CITY           SKY/WX    TMP DP  RH WIND       PRES   REMARKS
N.O. INTL ARPT MOSUNNY   71  68  90 SE14      30.07R                  
N.O. LAKEFRONT CLOUDY    72  68  87 S14       30.08R                  
N.O. DOWNTOWN*   N/A     71  68  90 S12G21    30.08S                  
RESERVE*       PTSUNNY   71  69  93 S7        30.08R                  
SLIDELL        CLOUDY    70  67  90 S10       30.07F                  
BATON ROUGE    TSTM      62  59  90 SE6       30.07F FOG              
BOOTHVILLE     CLOUDY    70  69  97 SE6       30.12R                  
BELLE CHASSE   MOSUNNY   72  68  88 S10       30.08S                  
BOGALUSA*      NOT AVBL                                               
GALLIANO*      SUNNY     71  67  84 SE7       30.08S                  
NEW ROADS*     FAIR      59  59  97 E7        30.05S                  
GONZALES*      CLOUDY    69  67  93 N7        30.07R                  
HAMMOND*       CLOUDY    70  64  83 W9        30.10R                  
HOUMA*         PTSUNNY   72  68  88 S12       30.07R                  
PORT FOURCHON* MOSUNNY   73  70  88 S8G14     30.10R FOG              

**********************************************************************
  Mississippi
800 AM CDT SAT MAR 25 2017

MSZ080>082-251400-
COASTAL MISSISSIPPI
  
CITY           SKY/WX    TMP DP  RH WIND       PRES   REMARKS
BAY ST LOUIS   CLOUDY    70  64  83 SE12      30.10S                  
BILOXI         CLOUDY    71  66  86 SE9       30.12R                  
PASCAGOULA     CLOUDY    70  63  78 SE6       30.14R                  
GULFPORT       CLOUDY    71  67  87 SE16      30.11R                  
About Us | Coastal Marine Forecast | Offshore Marine Forecast
Gulf Coast Tides | Hourly Weather Observations | Weather Radar
Sea Surface Temperatures | Solar/Lunar Data | Hurricane Advisories | Home
     
USA Logo Dr. Bill's Marine Weather
Last date changed: December 9, 2014 4:08 PM
www.gulfmarineweather.com/hourlyweatherobservations.shtml
Contact Us